• In Hungary
  • List of Countries
  • For 7 days
  • Water Temperature
  • Satellite Maps
  • Weather Map
  • News
  • Weather Widgets
  • user-avatar
    Login

    Hourly Weather Larne

    Today, 24 January, Wednesday

    Time Temperature Precipitation Wind Pressure Humidity
    00:00 +6°C° 0.3 mm 11 mps 742 mmHg 90%
    01:00 +5°C° 1.5 mm 12 mps 741 mmHg 90%
    02:00 +7°C° 1.5 mm 12 mps 739 mmHg 90%
    03:00 +8°C° 1.5 mm 13 mps 737 mmHg 91%
    04:00 +7°C° 1 mm 12 mps 737 mmHg 88%
    05:00 +6°C° 1 mm 11 mps 737 mmHg 85%
    06:00 +5°C° 1 mm 10 mps 736 mmHg 82%
    07:00 +3°C° 0 mm 11 mps 737 mmHg 81%
    08:00 +2°C° 0 mm 11 mps 737 mmHg 80%
    09:00 +2°C° 0 mm 12 mps 737 mmHg 79%
    10:00 +2°C° 0 mm 12 mps 738 mmHg 77%
    11:00 +3°C° 0 mm 12 mps 738 mmHg 75%
    12:00 +4°C° 0 mm 12 mps 739 mmHg 73%
    13:00 +4°C° 0 mm 11 mps 739 mmHg 73%
    14:00 +5°C° 0 mm 10 mps 739 mmHg 72%
    15:00 +5°C° 0 mm 9 mps 740 mmHg 72%
    16:00 +3°C° 0 mm 9 mps 740 mmHg 74%
    17:00 +2°C° 0 mm 9 mps 740 mmHg 75%
    18:00 +2°C° 0 mm 9 mps 740 mmHg 77%
    19:00 +2°C° 0 mm 9 mps 741 mmHg 77%
    20:00 +2°C° 0 mm 9 mps 741 mmHg 77%
    21:00 +1°C° 0 mm 9 mps 741 mmHg 77%
    22:00 +1°C° 0 mm 9 mps 741 mmHg 76%
    23:00 +1°C° 0 mm 9 mps 742 mmHg 75%

    Tomorrow, 25 January, Thursday

    Time Temperature Precipitation Wind Pressure Humidity
    00:00 +1°C° 0 mm 10 mps 742 mmHg 74%
    01:00 +1°C° 0 mm 10 mps 742 mmHg 74%
    02:00 +1°C° 0 mm 9 mps 742 mmHg 73%
    03:00 +1°C° 0 mm 9 mps 742 mmHg 73%
    04:00 +1°C° 0 mm 9 mps 742 mmHg 74%
    05:00 +1°C° 0 mm 9 mps 741 mmHg 75%
    06:00 +1°C° 0 mm 9 mps 741 mmHg 76%
    07:00 +1°C° 0 mm 9 mps 741 mmHg 77%
    08:00 +1°C° 0 mm 9 mps 741 mmHg 77%
    09:00 +1°C° 0 mm 9 mps 741 mmHg 78%
    10:00 +2°C° 0 mm 9 mps 741 mmHg 78%
    11:00 +4°C° 0 mm 8 mps 741 mmHg 78%
    12:00 +4°C° 0 mm 8 mps 741 mmHg 78%
    13:00 +4°C° 0.2 mm 7 mps 741 mmHg 78%
    14:00 +5°C° 0.2 mm 7 mps 742 mmHg 78%
    15:00 +5°C° 0.2 mm 6 mps 742 mmHg 78%
    16:00 +4°C° 0.1 mm 7 mps 743 mmHg 80%
    17:00 +4°C° 0.1 mm 7 mps 745 mmHg 82%
    18:00 +4°C° 0.1 mm 8 mps 746 mmHg 83%
    19:00 +2°C° 0 mm 8 mps 747 mmHg 83%
    20:00 +2°C° 0 mm 8 mps 748 mmHg 83%
    21:00 +2°C° 0 mm 9 mps 750 mmHg 84%
    22:00 +2°C° 0 mm 8 mps 751 mmHg 84%
    23:00 +2°C° 0 mm 8 mps 752 mmHg 84%

    Day after tomorrow, 26 January, Friday

    Time Temperature Precipitation Wind Pressure Humidity
    00:00 +2°C° 0 mm 8 mps 753 mmHg 84%
    01:00 +2°C° 0 mm 8 mps 754 mmHg 84%
    02:00 +2°C° 0 mm 9 mps 755 mmHg 83%
    03:00 +2°C° 0 mm 9 mps 756 mmHg 82%
    04:00 +2°C° 0 mm 8 mps 757 mmHg 82%
    05:00 +1°C° 0 mm 8 mps 758 mmHg 82%
    06:00 +2°C° 0 mm 7 mps 759 mmHg 82%
    07:00 +1°C° 0 mm 6 mps 760 mmHg 83%
    08:00 +1°C° 0 mm 5 mps 761 mmHg 83%
    09:00 +1°C° 0 mm 5 mps 761 mmHg 83%
    10:00 +1°C° 0 mm 4 mps 762 mmHg 79%
    11:00 +3°C° 0 mm 4 mps 762 mmHg 76%
    12:00 +4°C° 0 mm 3 mps 762 mmHg 72%
    13:00 +4°C° 0 mm 3 mps 762 mmHg 72%
    14:00 +4°C° 0 mm 3 mps 762 mmHg 72%
    15:00 +5°C° 0 mm 2 mps 762 mmHg 73%
    16:00 +3°C° 0 mm 3 mps 762 mmHg 75%
    17:00 +3°C° 0 mm 3 mps 762 mmHg 78%
    18:00 +2°C° 0 mm 3 mps 762 mmHg 81%
    19:00 +1°C° 0.1 mm 4 mps 762 mmHg 81%
    20:00 +3°C° 0.1 mm 4 mps 762 mmHg 82%
    21:00 +2°C° 0.1 mm 5 mps 762 mmHg 83%
    22:00 +2°C° 0.1 mm 5 mps 762 mmHg 85%
    23:00 +2°C° 0.1 mm 6 mps 761 mmHg 87%

    27 January, Saturday

    Time Temperature Precipitation Wind Pressure Humidity
    00:00 +2°C° 0.1 mm 6 mps 761 mmHg 89%
    01:00 +2°C° 0 mm 6 mps 761 mmHg 91%
    02:00 +2°C° 0 mm 5 mps 761 mmHg 93%
    03:00 +2°C° 0 mm 5 mps 761 mmHg 96%
    04:00 +3°C° 0.2 mm 5 mps 761 mmHg 96%
    05:00 +3°C° 0.2 mm 5 mps 760 mmHg 96%
    06:00 +3°C° 0.2 mm 5 mps 760 mmHg 96%
    07:00 +4°C° 1.4 mm 6 mps 760 mmHg 96%
    08:00 +4°C° 1.4 mm 6 mps 759 mmHg 96%
    09:00 +5°C° 1.4 mm 7 mps 759 mmHg 95%
    10:00 +6°C° 0.9 mm 7 mps 759 mmHg 95%
    11:00 +8°C° 0.9 mm 7 mps 759 mmHg 95%
    12:00 +9°C° 0.9 mm 7 mps 759 mmHg 95%
    13:00 +9°C° 0.1 mm 7 mps 760 mmHg 93%
    14:00 +9°C° 0.1 mm 7 mps 760 mmHg 92%
    15:00 +10°C° 0.1 mm 7 mps 760 mmHg 90%
    16:00 +9°C° 0 mm 7 mps 760 mmHg 91%
    17:00 +9°C° 0 mm 6 mps 761 mmHg 91%
    18:00 +8°C° 0 mm 6 mps 761 mmHg 92%
    19:00 +8°C° 0 mm 6 mps 762 mmHg 92%
    20:00 +8°C° 0 mm 6 mps 762 mmHg 93%
    21:00 +9°C° 0 mm 6 mps 763 mmHg 93%
    22:00 +9°C° 0.1 mm 7 mps 763 mmHg 93%
    23:00 +10°C° 0.1 mm 7 mps 763 mmHg 92%

    28 January, Sunday

    Time Temperature Precipitation Wind Pressure Humidity
    00:00 +10°C° 0.1 mm 7 mps 763 mmHg 92%
    01:00 +10°C° 0.1 mm 7 mps 763 mmHg 92%
    02:00 +10°C° 0.1 mm 8 mps 763 mmHg 91%
    03:00 +10°C° 0.1 mm 8 mps 764 mmHg 91%
    04:00 +10°C° 0 mm 7 mps 764 mmHg 91%
    05:00 +10°C° 0 mm 7 mps 764 mmHg 92%
    06:00 +10°C° 0 mm 7 mps 764 mmHg 92%
    07:00 +10°C° 0 mm 7 mps 765 mmHg 91%
    08:00 +10°C° 0 mm 7 mps 765 mmHg 91%
    09:00 +10°C° 0 mm 7 mps 765 mmHg 90%
    10:00 +10°C° 0 mm 8 mps 766 mmHg 90%
    11:00 +10°C° 0 mm 8 mps 766 mmHg 89%
    12:00 +10°C° 0 mm 8 mps 767 mmHg 89%
    13:00 +10°C° 0 mm 7 mps 766 mmHg 89%
    14:00 +10°C° 0 mm 7 mps 766 mmHg 89%
    15:00 +10°C° 0 mm 6 mps 766 mmHg 89%
    16:00 +10°C° 0 mm 6 mps 767 mmHg 89%
    17:00 +10°C° 0 mm 6 mps 767 mmHg 90%
    18:00 +10°C° 0 mm 6 mps 767 mmHg 90%
    19:00 +9°C° 0 mm 6 mps 767 mmHg 90%
    20:00 +9°C° 0 mm 7 mps 767 mmHg 90%
    21:00 +9°C° 0 mm 7 mps 766 mmHg 90%
    22:00 +9°C° 0 mm 7 mps 766 mmHg 90%
    23:00 +9°C° 0 mm 7 mps 766 mmHg 90%

    29 January, Monday

    Time Temperature Precipitation Wind Pressure Humidity
    00:00 +9°C° 0 mm 7 mps 766 mmHg 90%
    01:00 +9°C° 0 mm 7 mps 766 mmHg 89%
    02:00 +9°C° 0 mm 7 mps 765 mmHg 89%
    03:00 +9°C° 0 mm 7 mps 765 mmHg 88%
    04:00 +9°C° 0 mm 7 mps 765 mmHg 88%
    05:00 +9°C° 0 mm 8 mps 764 mmHg 88%
    06:00 +9°C° 0 mm 8 mps 764 mmHg 88%
    07:00 +9°C° 0 mm 8 mps 764 mmHg 88%
    08:00 +9°C° 0 mm 8 mps 764 mmHg 87%
    09:00 +8°C° 0 mm 9 mps 764 mmHg 87%
    10:00 +10°C° 0.1 mm 8 mps 764 mmHg 86%
    11:00 +10°C° 0.1 mm 8 mps 764 mmHg 86%
    12:00 +10°C° 0.1 mm 8 mps 764 mmHg 85%
    13:00 +10°C° 0.2 mm 8 mps 763 mmHg 85%
    14:00 +10°C° 0.2 mm 7 mps 763 mmHg 86%
    15:00 +10°C° 0.2 mm 7 mps 763 mmHg 86%
    16:00 +10°C° 0.1 mm 7 mps 763 mmHg 87%
    17:00 +10°C° 0.1 mm 7 mps 762 mmHg 87%
    18:00 +9°C° 0.1 mm 6 mps 762 mmHg 87%
    19:00 +9°C° 0.1 mm 7 mps 762 mmHg 87%
    20:00 +9°C° 0.1 mm 7 mps 761 mmHg 87%
    21:00 +9°C° 0.1 mm 7 mps 761 mmHg 87%
    22:00 +9°C° 0.2 mm 7 mps 760 mmHg 87%
    23:00 +9°C° 0.2 mm 7 mps 759 mmHg 87%
    Show more